• In Italy
  • List of Countries
  • For 7 days
  • Water Temperature
  • Satellite Maps
  • Weather Map
  • Weather Widgets
  • user-avatar
    Login

    Hourly Weather Gilleleje

    Today, 19 September, Wednesday

    Time Temperature Precipitation Wind Pressure Humidity
    00:00 +16°C° 0 mm 6 mps 756 mmHg 86%
    01:00 +15°C° 0 mm 5 mps 757 mmHg 93%
    02:00 +15°C° 0 mm 5 mps 757 mmHg 94%
    03:00 +15°C° 0 mm 5 mps 757 mmHg 94%
    04:00 +15°C° 0 mm 6 mps 758 mmHg 94%
    05:00 +15°C° 0 mm 5 mps 758 mmHg 94%
    06:00 +16°C° 0 mm 5 mps 758 mmHg 93%
    07:00 +16°C° 0 mm 5 mps 758 mmHg 92%
    08:00 +17°C° 0 mm 5 mps 758 mmHg 86%
    09:00 +19°C° 0 mm 6 mps 759 mmHg 80%
    10:00 +20°C° 0 mm 6 mps 759 mmHg 75%
    11:00 +21°C° 0 mm 6 mps 759 mmHg 71%
    12:00 +22°C° 0 mm 7 mps 759 mmHg 68%
    13:00 +22°C° 0 mm 7 mps 759 mmHg 65%
    14:00 +22°C° 0 mm 7 mps 758 mmHg 65%
    15:00 +22°C° 0 mm 7 mps 758 mmHg 65%
    16:00 +22°C° 0 mm 6 mps 758 mmHg 66%
    17:00 +21°C° 0 mm 6 mps 758 mmHg 69%
    18:00 +20°C° 0 mm 6 mps 758 mmHg 71%
    19:00 +20°C° 0 mm 5 mps 758 mmHg 74%
    20:00 +20°C° 0 mm 6 mps 758 mmHg 76%
    21:00 +19°C° 0 mm 6 mps 758 mmHg 77%
    22:00 +19°C° 0 mm 6 mps 758 mmHg 78%
    23:00 +18°C° 0 mm 7 mps 757 mmHg 79%

    Tomorrow, 20 September, Thursday

    Time Temperature Precipitation Wind Pressure Humidity
    00:00 +17°C° 0 mm 7 mps 757 mmHg 80%
    01:00 +17°C° 0 mm 7 mps 757 mmHg 81%
    02:00 +17°C° 0.1 mm 7 mps 757 mmHg 82%
    03:00 +17°C° 0.1 mm 7 mps 757 mmHg 83%
    04:00 +17°C° 0.1 mm 7 mps 757 mmHg 85%
    05:00 +17°C° 0.1 mm 7 mps 757 mmHg 86%
    06:00 +17°C° 0.1 mm 7 mps 758 mmHg 87%
    07:00 +17°C° 0.1 mm 7 mps 758 mmHg 88%
    08:00 +17°C° 0 mm 7 mps 758 mmHg 82%
    09:00 +18°C° 0 mm 8 mps 758 mmHg 76%
    10:00 +20°C° 0 mm 8 mps 759 mmHg 70%
    11:00 +20°C° 0 mm 8 mps 759 mmHg 69%
    12:00 +20°C° 0 mm 7 mps 759 mmHg 68%
    13:00 +20°C° 0 mm 7 mps 759 mmHg 67%
    14:00 +20°C° 0.1 mm 7 mps 758 mmHg 68%
    15:00 +20°C° 0.1 mm 6 mps 758 mmHg 70%
    16:00 +20°C° 0.1 mm 6 mps 758 mmHg 71%
    17:00 +19°C° 0.2 mm 6 mps 758 mmHg 74%
    18:00 +19°C° 0.2 mm 5 mps 757 mmHg 77%
    19:00 +17°C° 0.2 mm 5 mps 757 mmHg 81%
    20:00 +17°C° 0.1 mm 5 mps 757 mmHg 82%
    21:00 +17°C° 0.1 mm 5 mps 756 mmHg 84%
    22:00 +16°C° 0.1 mm 5 mps 756 mmHg 85%
    23:00 +17°C° 0 mm 6 mps 755 mmHg 84%

    Day after tomorrow, 21 September, Friday

    Time Temperature Precipitation Wind Pressure Humidity
    00:00 +17°C° 0 mm 7 mps 754 mmHg 82%
    01:00 +17°C° 0 mm 7 mps 754 mmHg 81%
    02:00 +18°C° 0 mm 7 mps 753 mmHg 79%
    03:00 +18°C° 0 mm 8 mps 752 mmHg 77%
    04:00 +18°C° 0 mm 8 mps 752 mmHg 75%
    05:00 +18°C° 0 mm 8 mps 751 mmHg 74%
    06:00 +18°C° 0 mm 9 mps 750 mmHg 73%
    07:00 +18°C° 0 mm 9 mps 749 mmHg 71%
    08:00 +19°C° 0 mm 10 mps 748 mmHg 68%
    09:00 +21°C° 0 mm 11 mps 748 mmHg 65%
    10:00 +22°C° 0 mm 11 mps 747 mmHg 62%
    11:00 +21°C° 0.8 mm 12 mps 748 mmHg 66%
    12:00 +19°C° 0.8 mm 12 mps 748 mmHg 71%
    13:00 +17°C° 0.8 mm 13 mps 748 mmHg 75%
    14:00 +17°C° 0.3 mm 13 mps 748 mmHg 71%
    15:00 +15°C° 0.3 mm 13 mps 749 mmHg 67%
    16:00 +14°C° 0.3 mm 13 mps 749 mmHg 62%
    17:00 +13°C° 0 mm 13 mps 749 mmHg 61%
    18:00 +13°C° 0 mm 14 mps 749 mmHg 60%
    19:00 +12°C° 0 mm 14 mps 750 mmHg 59%
    20:00 +12°C° 0.2 mm 13 mps 750 mmHg 60%
    21:00 +12°C° 0.2 mm 13 mps 750 mmHg 62%
    22:00 +10°C° 0.2 mm 13 mps 750 mmHg 63%
    23:00 +10°C° 0.2 mm 12 mps 751 mmHg 64%

    22 September, Saturday

    Time Temperature Precipitation Wind Pressure Humidity
    00:00 +10°C° 0.2 mm 12 mps 751 mmHg 65%
    01:00 +11°C° 0.2 mm 11 mps 751 mmHg 66%
    02:00 +11°C° 0.1 mm 11 mps 752 mmHg 66%
    03:00 +11°C° 0.1 mm 11 mps 752 mmHg 65%
    04:00 +11°C° 0.1 mm 11 mps 753 mmHg 64%
    05:00 +11°C° 0.1 mm 10 mps 753 mmHg 65%
    06:00 +11°C° 0.1 mm 9 mps 753 mmHg 66%
    07:00 +11°C° 0.1 mm 9 mps 753 mmHg 67%
    08:00 +11°C° 0.4 mm 9 mps 754 mmHg 66%
    09:00 +12°C° 0.4 mm 10 mps 754 mmHg 64%
    10:00 +13°C° 0.4 mm 11 mps 754 mmHg 63%
    11:00 +13°C° 0.2 mm 11 mps 754 mmHg 60%
    12:00 +13°C° 0.2 mm 11 mps 754 mmHg 57%
    13:00 +13°C° 0.2 mm 11 mps 754 mmHg 54%
    14:00 +13°C° 0.2 mm 12 mps 754 mmHg 54%
    15:00 +13°C° 0.2 mm 12 mps 754 mmHg 55%
    16:00 +13°C° 0.2 mm 12 mps 754 mmHg 55%
    17:00 +12°C° 0.3 mm 12 mps 754 mmHg 60%
    18:00 +11°C° 0.3 mm 11 mps 755 mmHg 66%
    19:00 +11°C° 0.3 mm 11 mps 755 mmHg 71%
    20:00 +9°C° 0.1 mm 11 mps 756 mmHg 71%
    21:00 +9°C° 0.1 mm 10 mps 756 mmHg 71%
    22:00 +9°C° 0.1 mm 10 mps 756 mmHg 71%
    23:00 +9°C° 0.1 mm 10 mps 757 mmHg 71%

    23 September, Sunday

    Time Temperature Precipitation Wind Pressure Humidity
    00:00 +9°C° 0.1 mm 10 mps 757 mmHg 70%
    01:00 +8°C° 0.1 mm 10 mps 757 mmHg 70%
    02:00 +8°C° 0.1 mm 10 mps 757 mmHg 69%
    03:00 +8°C° 0.1 mm 10 mps 757 mmHg 69%
    04:00 +8°C° 0.1 mm 10 mps 757 mmHg 69%
    05:00 +8°C° 0.1 mm 9 mps 757 mmHg 69%
    06:00 +9°C° 0.1 mm 8 mps 757 mmHg 69%
    07:00 +9°C° 0.1 mm 8 mps 757 mmHg 69%
    08:00 +10°C° 0 mm 7 mps 757 mmHg 66%
    09:00 +11°C° 0 mm 6 mps 757 mmHg 62%
    10:00 +11°C° 0 mm 6 mps 757 mmHg 58%
    11:00 +13°C° 0 mm 5 mps 757 mmHg 57%
    12:00 +13°C° 0 mm 4 mps 756 mmHg 55%
    13:00 +13°C° 0 mm 4 mps 756 mmHg 54%
    14:00 +13°C° 0 mm 3 mps 756 mmHg 55%
    15:00 +12°C° 0 mm 3 mps 755 mmHg 57%
    16:00 +13°C° 0 mm 2 mps 755 mmHg 58%
    17:00 +11°C° 0.3 mm 3 mps 754 mmHg 64%
    18:00 +11°C° 0.3 mm 4 mps 754 mmHg 69%
    19:00 +10°C° 0.3 mm 4 mps 754 mmHg 74%
    20:00 +9°C° 0.1 mm 6 mps 752 mmHg 76%
    21:00 +8°C° 0.1 mm 7 mps 751 mmHg 77%
    22:00 +7°C° 0.1 mm 9 mps 750 mmHg 78%
    23:00 +7°C° 1.7 mm 9 mps 748 mmHg 82%

    24 September, Monday

    Time Temperature Precipitation Wind Pressure Humidity
    00:00 +7°C° 1.7 mm 10 mps 747 mmHg 85%
    01:00 +7°C° 1.7 mm 10 mps 746 mmHg 88%
    02:00 +7°C° 4.1 mm 11 mps 745 mmHg 88%
    03:00 +7°C° 4.1 mm 12 mps 744 mmHg 89%
    04:00 +7°C° 4.1 mm 13 mps 744 mmHg 90%
    05:00 +7°C° 3 mm 13 mps 743 mmHg 89%
    06:00 +8°C° 3 mm 13 mps 743 mmHg 89%
    07:00 +8°C° 3 mm 13 mps 742 mmHg 89%
    08:00 +8°C° 1.5 mm 13 mps 742 mmHg 88%
    09:00 +8°C° 1.5 mm 13 mps 742 mmHg 88%
    10:00 +8°C° 1.5 mm 13 mps 743 mmHg 88%
    11:00 +8°C° 1.5 mm 14 mps 743 mmHg 87%
    12:00 +8°C° 1.5 mm 14 mps 744 mmHg 87%
    13:00 +8°C° 1.5 mm 15 mps 744 mmHg 87%
    14:00 +6°C° 1.5 mm 15 mps 745 mmHg 86%
    15:00 +6°C° 1.5 mm 16 mps 746 mmHg 85%
    16:00 +6°C° 1.5 mm 16 mps 747 mmHg 84%
    17:00 +6°C° 0.6 mm 16 mps 749 mmHg 82%
    18:00 +6°C° 0.6 mm 15 mps 750 mmHg 81%
    19:00 +6°C° 0.6 mm 15 mps 751 mmHg 79%
    20:00 +6°C° 0.1 mm 14 mps 753 mmHg 78%
    21:00 +6°C° 0.1 mm 14 mps 754 mmHg 77%
    22:00 +7°C° 0.1 mm 13 mps 755 mmHg 76%
    23:00 +7°C° 0 mm 12 mps 756 mmHg 75%
    Show more